Showing default

COSMOS 2504, 40555

Orbit data source: Space-Track

COSMOS 2504, 40555 is a payload satellite owned by TsNIIKhM (CIS) in LEO that was launched on Tue, 31 Mar 2015 UTC via an ROKOT launch vehicle from the Plesetsk Missile And Space Complex (PKMTR). Payload-class satellites include a variety of spacecraft equipped with specific instruments for various scientific and technological missions. These include communications satellites like Starlink; space stations such as the ISS; scientific satellites like the Hubble; Earth observation satellites from companies like Planet Labs, Umbra, and HawkEye 360; GPS; miniature CubeSats for education and research; and military/defense satellites.

Loading next visibility...
Identifier
40555, 2015-020D
Orbit
LEO
Country
Flag of CISCIS
Related business
Manufacturer
TsNIIKhM
Mission
Operational Defense Technology
Bus & Motor
NIVELIR, Unknown motor
Mass
~100 kg wet, ~100 kg dry
Launch date (UTC)
2015-03-31 (11 years ago)
Launch vehicle
ROKOT
Launch site
Plesetsk Missile And Space Complex (PKMTR)
Object type
Payload
Rocket body
Debris
Shape & HBR
Hex Cyl + 1 Ant, 0.5 m
Radar Cross Section
0.352 m², Medium (>0.1 m² and < 1m²)

Expand to show TLE details & history
Last TLE update: 7 hours ago

TLE from 7 hours ago
0 COSMOS 2504
1 40555U 15020D   26237.49507615  .00000320  00000-0  10874-3 0  9992
2 40555  82.5177 177.7341 0609166  85.8795 281.1701 13.61408690559626
Epoch: 2026-08-25T11:52Z
TLE epoch observation values (Epoch: 2026-08-25T11:52:54.579Z)
Latitude
-0.00001°
Longitude
25.74508°
Altitude
972.888 km
Speed
7.395 km/s
True Right ascension
11h 50m 56s
True Declination
0° 00' 00"
Sunlit
Object was in daylight at epoch
Visualization orbit readout
Latitude
Unknown
Longitude
Unknown
Altitude
Unknown
Speed
Unknown
Apparent Right ascension
Unknown
Apparent Declination
Unknown
Sunlit
N/A
Visualization observer readout
Local Sidereal Time
09:47:20
Azimuth
Unknown
Elevation
Unknown
Doppler factor
Unknown
Orbital elements
Apogee altitude
1,478.887 km
Perigee altitude
576.604 km
Semi-major axis
7,405.882 km
Eccentricity
0.06092
Inclination
82.5177°
RAAN
177.7341°
Arg. of periapsis
85.8795°
True anomaly
274.23633°
Mean anomaly
281.1701°
Eccentric anomaly
277.7114°
Mean motion
3.40548 °/min
Orbital period
105.71 mins
BSTAR
0.00010874
Loading maneuver chart data...
Computing Atmospheric mass density...
Loading historical data...
Loading historical data...
Loading historical data...
Loading historical data...
Loading historical data...
Loading historical data...
Loading historical data...

Documentation

Showing up to 5 results
|